This is the latest recevied weather packets stored in our database for station/object NK0Z-13. If no packets are shown the sender has not sent any weather packets the latest 10 day(s).
| Time | Temp. | Humidity | Pressure | Rain* | Wind** | Luminosity | Snow |
|---|---|---|---|---|---|---|---|
| 1777329650 | 20° C | 57% | 1011.9 hPa | 0 mm | - | 351 W/m² | - |
| 1777329044 | 20° C | 57% | 1011.7 hPa | 0 mm | - | 380 W/m² | - |
| 1777328439 | 20° C | 57% | 1011.7 hPa | 0 mm | - | 411 W/m² | - |
| 1777327837 | 20° C | 57% | 1011.4 hPa | 0 mm | - | 437 W/m² | - |
| 1777327231 | 20° C | 57% | 1011.2 hPa | 0 mm | - | 466 W/m² | - |
| 1777326631 | 20.56° C | 55% | 1010.9 hPa | 0 mm | - | 493 W/m² | - |
| 1777326031 | 20.56° C | 58% | 1010.9 hPa | 0 mm | - | 519 W/m² | - |
| 1777325427 | 20.56° C | 58% | 1010.7 hPa | 0 mm | - | 543 W/m² | - |
| 1777324826 | 21.11° C | 56% | 1010.5 hPa | 0 mm | - | 563 W/m² | - |
| 1777324221 | 20.56° C | 59% | 1010.5 hPa | 0 mm | - | 591 W/m² | - |
| 1777323622 | 21.11° C | 59% | 1010.2 hPa | 0 mm | - | 608 W/m² | - |
| 1777323017 | 20.56° C | 62% | 1010.4 hPa | 0 mm | - | 629 W/m² | - |
| 1777322413 | 20° C | 63% | 1010.4 hPa | 0 mm | - | 649 W/m² | - |
| 1777321812 | 20.56° C | 59% | 1010.1 hPa | 0 mm | - | 673 W/m² | - |
| 1777321206 | 20.56° C | 61% | 1010 hPa | 0 mm | - | 689 W/m² | - |
| 1777320607 | 20° C | 65% | 1009.9 hPa | 0 mm | - | 700 W/m² | - |
| 1777320006 | 20° C | 63% | 1009.8 hPa | 0 mm | - | 707 W/m² | - |
| 1777319400 | 19.44° C | 66% | 1009.9 hPa | 0 mm | - | 707 W/m² | - |
| 1777318794 | 19.44° C | 64% | 1009.7 hPa | 0 mm | - | 737 W/m² | - |
| 1777318193 | 18.89° C | 67% | 1009.7 hPa | 0 mm | - | 436 W/m² | - |
| 1777317593 | 18.33° C | 68% | 1009.7 hPa | 0 mm | - | 797 W/m² | - |
| 1777316991 | 18.89° C | 69% | 1009.4 hPa | 0 mm | - | 870 W/m² | - |
| 1777316391 | 18.89° C | 71% | 1009.5 hPa | 0 mm | - | 762 W/m² | - |
| 1777315787 | 18.33° C | 71% | 1009.3 hPa | 0 mm | - | 766 W/m² | - |
| 1777315183 | 18.33° C | 72% | 1009.3 hPa | 0 mm | - | 762 W/m² | - |
* Rain latest hour (hover to see other rain measurements)
** Current wind speed in m/s (hover to see current wind gust speed)